Torna al catalogo

STARLINK-31947

AttivoComunicazioniVLEO
NORAD 59835·PAYLOAD·🇺🇸 United States

Lanciato May 23, 2024 da Cape Canaveral Space Force Station

Loading…

Prossimi Passaggi (prossime 24 ore)

TLE

AggiornatoSource: CelesTrak SupGP

Epoca: Sep 14, 2026, 21:17 UTC

1 59835C 24097A   26257.88729167  .00004609  00000+0  16692-3 0  2574
2 59835  43.0018 285.6606 0001854 272.7814 123.8788 15.27579637    10

Traccia STARLINK-31947 in tempo reale con AllMySat

Download on the App Store